[[{"header":{"parameterUnit":"m.s-1","parameterCategory":1,"la1":30.2991,"la2":30.254,"lo1":-89.0895,"lo2":-89.0444,"dy":0.0017,"dx":0.0017,"nx":28,"ny":28,"refTime":"2024-05-16T09:00:00:Z","depth":0,"parameterNumber":2,"parameterNumberName":"U-component_of_WINDS"},"data":[0,0,0,0,0,0,0,0,0,0,0,0,0,0,0,0,0,0,0,0,0,0,0,0,0,0,0,0,0,0,0,0,0,0,0,0,0,0,0,0,0,0,0,0,0,0,0,0,0,0,0,0,0,0,0,0,0,0,-2.1029,-2.1029,0,-2.1034,-2.1034,-2.1034,-2.0941,-2.0939,-2.0936,-2.0934,-2.094,-2.0943,-2.0945,0,0,0,0,0,0,0,0,0,0,0,0,0,-2.0939,-2.0941,-2.1029,-2.1029,-2.1029,-2.1034,-2.1034,-2.1034,-2.0941,-2.0938,-2.0935,-2.0933,-2.094,-2.0943,-2.0946,0,0,0,0,0,0,0,0,0,0,0,0,0,-2.0965,-2.0942,-2.1028,-2.0983,-2.0979,-2.1034,-2.1034,-2.1034,-2.0942,-2.0938,-2.0935,-2.0931,-2.0939,-2.0942,-2.0946,-2.1045,0,0,-2.0958,-2.0959,0,0,0,0,0,0,0,0,-2.0963,-2.0968,-2.099,-2.0986,-2.0982,-2.0983,-2.1005,-2.1038,-2.0943,-2.0956,-2.0934,-2.0929,-2.0958,-2.096,-2.0969,-2.1045,-2.1046,-2.0958,-2.096,-2.0962,-2.0963,0,0,0,0,0,0,0,-2.0962,-2.0967,-2.1031,-2.099,-2.0985,-2.0963,-2.0962,-2.1011,-2.0978,-2.0955,-2.0948,-2.095,-2.0955,-2.0966,-2.0969,-2.1046,-2.0958,-2.0961,-2.0964,-2.0965,-2.1203,-2.1207,0,0,0,0,0,0,-2.0966,-2.0966,-2.103,-2.1031,-2.0963,-2.0967,-2.0967,-2.0986,-2.0977,-2.0972,-2.0953,-2.0946,-2.0961,-2.0964,-2.0968,-2.1084,-2.0962,-2.0965,-2.0968,-2.1199,-2.1204,-2.1209,0,0,0,0,0,0,-2.0964,-2.0972,-2.103,-2.0997,-2.1002,-2.0973,-2.0996,-2.0989,-2.0999,-2.0976,-2.097,-2.097,-2.0958,-2.0963,-2.1027,-2.1083,-2.0967,-2.0971,-2.1195,-2.1201,-2.1206,-2.1316,0,0,0,0,0,0,-2.0962,-2.0972,-2.101,-2.0998,-2.1004,-2.1089,-2.0999,-2.0991,-2.1006,-2.0996,-2.099,-2.0986,-2.0956,-2.1021,-2.103,-2.1086,-2.0974,-2.1189,-2.1197,-2.1205,-2.1307,-2.1325,-2.134,0,0,0,0,0,-2.0959,-2.1041,-2.1012,-2.102,-2.105,-2.1092,-2.1096,-2.1059,-2.1011,-2.1048,-2.1033,-2.0986,-2.1075,-2.1029,-2.1038,-2.1096,-2.1186,-2.1195,-2.1204,-2.13,-2.1322,-2.134,0,0,0,0,0,0,-2.106,-2.1038,-2.1006,-2.1086,-2.1092,-2.1076,-2.1122,-2.1083,-2.1102,-2.1093,-2.1046,-2.1046,-2.1117,-2.1112,-2.1061,-2.1191,-2.1122,-2.1133,-2.1192,-2.1212,-2.1228,-2.1229,-2.0977,0,0,0,0,0,-2.1091,-2.1127,-2.1106,-2.1178,-2.1183,-2.1152,-2.1169,-2.114,-2.1144,-2.1146,-2.1135,-2.1141,-2.117,-2.1191,-2.1216,-2.1306,-2.1303,-2.135,-2.1366,-2.138,-2.1391,-2.1438,-2.1459,-2.1239,-2.1239,-2.1238,0,0,-2.1157,-2.1149,-2.1175,-2.1198,-2.1199,-2.1237,-2.1155,-2.1198,-2.1226,-2.1152,-2.1212,-2.1205,-2.1208,-2.1285,-2.1318,-2.1283,-2.1451,-2.1392,-2.1403,-2.1406,-2.145,-2.1471,-2.1489,-2.1245,-2.1244,-2.1243,0,0,-2.1296,-2.1294,-2.1354,-2.1356,-2.1358,-2.1337,-2.1352,-2.1342,-2.1334,-2.1393,-2.1338,-2.1371,-2.1422,-2.1427,-2.1436,-2.1576,-2.1534,-2.1586,-2.1673,-2.1719,-2.1737,-2.1752,-2.1803,-2.1822,-2.1596,-2.1596,-2.1597,0,-2.1378,-2.1432,-2.139,-2.1438,-2.145,-2.1384,-2.1445,-2.1449,-2.146,-2.147,-2.143,-2.1493,-2.149,-2.1568,-2.1602,-2.1611,-2.1627,-2.1587,-2.1738,-2.1752,-2.1766,-2.1814,-2.1833,-2.1603,-2.1602,-2.1601,-2.1601,0,-2.1533,-2.1572,-2.162,-2.1632,-2.1649,-2.1703,-2.167,-2.1692,-2.1662,-2.1645,-2.1706,-2.17,-2.1724,-2.174,-2.171,-2.1813,-2.1791,-2.1745,-2.1675,-2.1794,-2.1839,-2.1857,-2.1612,-2.161,-2.1608,-2.1606,0,0,-2.1737,-2.1724,-2.1743,-2.1747,-2.1744,-2.1773,-2.1824,-2.1846,-2.1867,-2.1876,-2.1918,-2.1963,-2.192,-2.1931,-2.1901,-2.1942,-2.2054,-2.189,-2.189,-2.1922,-2.2168,-2.2204,-2.2226,-2.2025,-2.2029,-2.2031,-2.2168,0,-2.1873,-2.196,-2.1923,-2.2013,-2.2049,-2.1986,-2.203,-2.2033,-2.2019,-2.2047,-2.2031,-2.2064,-2.2004,-2.201,-2.2048,-2.2033,-2.2103,-2.2022,-2.2065,-2.2067,-2.2068,-2.2249,-2.2287,-2.2416,-2.2185,-2.2188,-2.219,0,-2.2044,-2.206,-2.2154,-2.2144,-2.2157,-2.2198,-2.2216,-2.2243,-2.2245,-2.2232,-2.2243,-2.2204,-2.2254,-2.2183,-2.2251,-2.2197,-2.2212,-2.2207,-2.2211,-2.2215,-2.2137,-2.2259,-2.2457,-2.2477,-2.2217,-2.2215,-2.2213,0,-2.2185,-2.223,-2.2292,-2.2297,-2.2287,-2.2317,-2.2315,-2.2313,-2.2328,-2.2344,-2.2353,-2.2374,-2.2386,-2.2404,-2.2371,-2.2323,-2.2444,-2.2371,-2.2435,-2.2436,-2.2465,-2.2464,-2.267,-2.2473,-2.2473,-2.2472,-2.2472,0,-2.2342,-2.2402,-2.2355,-2.2393,-2.2459,-2.2415,-2.2481,-2.2472,-2.2471,-2.2506,-2.2452,-2.2487,-2.2442,-2.2472,-2.2447,-2.2507,-2.2513,-2.2504,-2.2497,-2.251,-2.2511,-2.252,-2.2511,-2.2477,-2.2476,-2.2475,-2.2474,0,-2.2512,-2.2482,-2.2546,-2.2531,-2.2528,-2.2577,-2.2564,-2.2599,-2.258,-2.2626,-2.2634,-2.2605,-2.2638,-2.2607,-2.2638,-2.2621,-2.2702,-2.2681,-2.2702,-2.2697,-2.2763,-2.2758,-2.2983,-2.3011,-2.2795,-2.2797,-2.2799,0,-2.2614,-2.2659,-2.2649,-2.2668,-2.2669,-2.2701,-2.2717,-2.2676,-2.2694,-2.2699,-2.2734,-2.2762,-2.2782,-2.2837,-2.282,-2.2843,-2.2823,-2.29,-2.2826,-2.2838,-2.2826,-2.2824,-2.2829,-2.2916,-2.2918,-2.2921,-2.2922,0,-2.28,-2.2783,-2.2808,-2.2828,-2.2848,-2.2861,-2.287,-2.289,-2.2847,-2.2871,-2.2903,-2.2919,-2.295,-2.2979,-2.2997,-2.2994,-2.2952,-2.2945,-2.2962,-2.2976,-2.2987,-2.2983,-2.2744,-2.2941,-2.2939,-2.2938,-2.2937,-2.2936,-2.294,-2.2977,-2.2976,-2.3005,-2.3007,-2.3017,-2.3049,-2.3034,-2.306,-2.3082,-2.3056,-2.3096,-2.3097,-2.3116,-2.3118,-2.3149,-2.3117,-2.314,-2.3147,-2.3153,-2.3164,-2.298,-2.3152,-2.3151,-2.3151,-2.315,-2.315,0,-2.3124,-2.312,-2.3147,-2.3162,-2.3185,-2.3141,-2.3149,-2.3172,-2.3207,-2.3211,-2.3232,-2.3269,-2.3297,-2.3281,-2.3304,-2.3332,-2.3313,-2.334,-2.3338,-2.3338,-2.3191,-2.3175,-2.3355,-2.3355,-2.3354,-2.3354,-2.3354,-2.3354,-2.3223,-2.3283,-2.3266,-2.3327,-2.3322,-2.3361,-2.3369,-2.3378,-2.3381,-2.3425,-2.3447,-2.3436,-2.3432,-2.3454,-2.3478,-2.3472,-2.3484,-2.3518,-2.3506,-2.3369,-2.3349,-2.3329,-2.3314,-2.352,-2.3521,-2.365,-2.3652,-2.3653]},{"header":{"parameterUnit":"m.s-1","parameterCategory":1,"la1":30.2991,"la2":30.254,"lo1":-89.0895,"lo2":-89.0444,"dy":0.0017,"dx":0.0017,"nx":28,"ny":28,"refTime":"2024-05-16T09:00:00:Z","depth":0,"parameterNumber":3,"parameterNumberName":"V-component_of_WINDS"},"data":[0,0,0,0,0,0,0,0,0,0,0,0,0,0,0,0,0,0,0,0,0,0,0,0,0,0,0,0,0,0,0,0,0,0,0,0,0,0,0,0,0,0,0,0,0,0,0,0,0,0,0,0,0,0,0,0,0,0,-1.4805,-1.4805,0,-1.4862,-1.4863,-1.4864,-1.4886,-1.4886,-1.4886,-1.4886,-1.4942,-1.4943,-1.4945,0,0,0,0,0,0,0,0,0,0,0,0,0,-1.4711,-1.4712,-1.4805,-1.4805,-1.4806,-1.4862,-1.4863,-1.4864,-1.4886,-1.4886,-1.4886,-1.4886,-1.4941,-1.4943,-1.4945,0,0,0,0,0,0,0,0,0,0,0,0,0,-1.4758,-1.4713,-1.4805,-1.4824,-1.4827,-1.4862,-1.4863,-1.4864,-1.4886,-1.4886,-1.4886,-1.4886,-1.4941,-1.4943,-1.4946,-1.4965,0,0,-1.4953,-1.4954,0,0,0,0,0,0,0,0,-1.4756,-1.4762,-1.4821,-1.4823,-1.4826,-1.4867,-1.4851,-1.4898,-1.4886,-1.4863,-1.4886,-1.4886,-1.4917,-1.4921,-1.4933,-1.4968,-1.497,-1.4953,-1.4955,-1.4956,-1.4956,0,0,0,0,0,0,0,-1.4752,-1.4759,-1.4827,-1.4821,-1.4824,-1.4829,-1.4836,-1.486,-1.4891,-1.4865,-1.4867,-1.4874,-1.4918,-1.493,-1.4934,-1.4971,-1.4953,-1.4955,-1.4957,-1.4958,-1.5024,-1.5024,0,0,0,0,0,0,-1.4746,-1.4756,-1.4826,-1.4829,-1.4789,-1.4831,-1.4838,-1.4854,-1.489,-1.4896,-1.4874,-1.4875,-1.4926,-1.4931,-1.4936,-1.4961,-1.4956,-1.4958,-1.4959,-1.5024,-1.5024,-1.5025,0,0,0,0,0,0,-1.4744,-1.4752,-1.4823,-1.4793,-1.4803,-1.4833,-1.485,-1.4855,-1.4867,-1.4897,-1.4902,-1.4881,-1.4926,-1.4933,-1.4958,-1.4963,-1.4959,-1.4961,-1.5023,-1.5024,-1.5024,-1.5011,0,0,0,0,0,0,-1.4741,-1.4751,-1.476,-1.4793,-1.4804,-1.4845,-1.4851,-1.4856,-1.4872,-1.4873,-1.4905,-1.491,-1.4926,-1.4954,-1.496,-1.4967,-1.4963,-1.5023,-1.5024,-1.5024,-1.5011,-1.5011,-1.5011,0,0,0,0,0,-1.4738,-1.4753,-1.476,-1.4768,-1.4816,-1.4845,-1.4851,-1.4871,-1.4872,-1.488,-1.4899,-1.4909,-1.4962,-1.4956,-1.4964,-1.4971,-1.5023,-1.5024,-1.5024,-1.5011,-1.5011,-1.5011,0,0,0,0,0,0,-1.4719,-1.4758,-1.4766,-1.4793,-1.4816,-1.4849,-1.486,-1.487,-1.4893,-1.4893,-1.4916,-1.4923,-1.4946,-1.4961,-1.4954,-1.4991,-1.4993,-1.4995,-1.4981,-1.4981,-1.4981,-1.4976,-1.4965,0,0,0,0,0,-1.4718,-1.4739,-1.4772,-1.4793,-1.4804,-1.483,-1.4843,-1.4857,-1.4881,-1.489,-1.4911,-1.4933,-1.4955,-1.4969,-1.499,-1.5014,-1.502,-1.5022,-1.5022,-1.5022,-1.5023,-1.5036,-1.5037,-1.5027,-1.5027,-1.5027,0,0,-1.4716,-1.474,-1.4752,-1.4789,-1.4809,-1.483,-1.4838,-1.486,-1.4875,-1.4893,-1.4919,-1.4935,-1.4961,-1.4985,-1.4996,-1.4998,-1.5027,-1.5022,-1.5022,-1.5024,-1.5037,-1.5038,-1.5039,-1.5027,-1.5027,-1.5027,0,0,-1.4723,-1.4743,-1.4763,-1.4782,-1.4811,-1.4828,-1.4833,-1.4865,-1.4876,-1.4902,-1.4916,-1.4934,-1.4971,-1.4989,-1.5003,-1.5016,-1.5025,-1.5022,-1.5021,-1.5034,-1.5035,-1.5035,-1.504,-1.5041,-1.5024,-1.5023,-1.5023,0,-1.4716,-1.4749,-1.4771,-1.4792,-1.4808,-1.4826,-1.4845,-1.4862,-1.4896,-1.4906,-1.4908,-1.4955,-1.4973,-1.5002,-1.5005,-1.5016,-1.5021,-1.5019,-1.5033,-1.5034,-1.5035,-1.5039,-1.5041,-1.5023,-1.5023,-1.5023,-1.5023,0,-1.474,-1.4762,-1.4774,-1.4808,-1.4825,-1.4845,-1.4868,-1.4883,-1.4894,-1.4911,-1.4936,-1.496,-1.4986,-1.4994,-1.5005,-1.5024,-1.5024,-1.5029,-1.5031,-1.5035,-1.5039,-1.5041,-1.5022,-1.5022,-1.5023,-1.5023,0,0,-1.4736,-1.4782,-1.4786,-1.4801,-1.4834,-1.4852,-1.4872,-1.4899,-1.491,-1.4933,-1.495,-1.4981,-1.4985,-1.5001,-1.5014,-1.5025,-1.5034,-1.5029,-1.503,-1.5029,-1.5055,-1.5051,-1.5052,-1.504,-1.504,-1.5041,-1.5053,0,-1.4748,-1.4786,-1.4806,-1.4835,-1.4856,-1.4873,-1.4891,-1.4912,-1.4928,-1.4947,-1.4965,-1.4986,-1.4991,-1.5,-1.5012,-1.503,-1.5039,-1.503,-1.5055,-1.5056,-1.5048,-1.5055,-1.5051,-1.5061,-1.5054,-1.5055,-1.5055,0,-1.4766,-1.479,-1.4821,-1.4852,-1.4861,-1.4877,-1.4903,-1.4921,-1.4945,-1.4956,-1.4974,-1.4987,-1.5008,-1.5008,-1.5037,-1.503,-1.5041,-1.5052,-1.5053,-1.5056,-1.5056,-1.5058,-1.5065,-1.5066,-1.5058,-1.5058,-1.5058,0,-1.476,-1.48,-1.4824,-1.4836,-1.4872,-1.4883,-1.4898,-1.4923,-1.4937,-1.4959,-1.4969,-1.4993,-1.5006,-1.5023,-1.5042,-1.5041,-1.5069,-1.5071,-1.5078,-1.5077,-1.5083,-1.5082,-1.5091,-1.509,-1.509,-1.509,-1.509,0,-1.4771,-1.4789,-1.4821,-1.4836,-1.4857,-1.4879,-1.4899,-1.4916,-1.4937,-1.4955,-1.497,-1.4986,-1.501,-1.5029,-1.5043,-1.5064,-1.507,-1.5079,-1.5082,-1.5077,-1.5076,-1.5085,-1.5085,-1.509,-1.509,-1.509,-1.509,0,-1.4768,-1.479,-1.4817,-1.485,-1.4858,-1.4872,-1.4899,-1.4914,-1.493,-1.4952,-1.4958,-1.4984,-1.5007,-1.5027,-1.5057,-1.5067,-1.5088,-1.5093,-1.508,-1.5082,-1.5088,-1.5087,-1.5103,-1.5106,-1.5103,-1.5103,-1.5103,0,-1.4773,-1.4788,-1.4822,-1.4835,-1.485,-1.4872,-1.4887,-1.4909,-1.4924,-1.4952,-1.4963,-1.4987,-1.5007,-1.5042,-1.5063,-1.5085,-1.5091,-1.5095,-1.5094,-1.5089,-1.5091,-1.5089,-1.5091,-1.5094,-1.5094,-1.5094,-1.5094,0,-1.478,-1.479,-1.4812,-1.4837,-1.4855,-1.4876,-1.4897,-1.4907,-1.4933,-1.4949,-1.4972,-1.4988,-1.5019,-1.5042,-1.5067,-1.5082,-1.5092,-1.5094,-1.5097,-1.5092,-1.5084,-1.5088,-1.5079,-1.5094,-1.5094,-1.5094,-1.5094,-1.5094,-1.4781,-1.4795,-1.4821,-1.4844,-1.4863,-1.4882,-1.4897,-1.4916,-1.4937,-1.4964,-1.4975,-1.4999,-1.5022,-1.5057,-1.5072,-1.509,-1.5092,-1.5096,-1.5097,-1.5098,-1.5097,-1.5081,-1.5095,-1.5095,-1.5095,-1.5095,-1.5095,0,-1.4788,-1.4806,-1.4827,-1.4857,-1.4875,-1.4884,-1.4908,-1.4923,-1.4944,-1.4965,-1.4985,-1.5012,-1.5034,-1.5057,-1.508,-1.5091,-1.5096,-1.5096,-1.5095,-1.5099,-1.5094,-1.5089,-1.5091,-1.5091,-1.5091,-1.5091,-1.5091,-1.5091,-1.4794,-1.4818,-1.4831,-1.4864,-1.4881,-1.4906,-1.4919,-1.4936,-1.4953,-1.4983,-1.5002,-1.5017,-1.5039,-1.5064,-1.5084,-1.509,-1.5098,-1.5097,-1.5104,-1.5099,-1.5099,-1.5099,-1.5095,-1.5098,-1.5098,-1.5108,-1.5108,-1.5108]}]]